Location: ???? ??
(36.0534°N, 43.5630°E)
Time: 16:55:57
(UTC+00:00)

Cosmos 1624 Rocket - Pass Details

Date: 18 September 2019
Orbit: 757 x 784 km, 74.0° (Epoch: 20 October)

Event Time Altitude Azimuth Distance (km) Brightness Sun altitude
Rises 16:35:54 0° 187° (S) 3,206 7.1 -18.1°
Reaches altitude 10° 16:38:17 10° 184° (S) 2,282 6.3 -18.5°
Maximum altitude 16:43:23 63° 104° (ESE) 844 3.9 -19.5°
Drops below altitude 10° 16:48:30 10° 24° (NNE) 2,290 6.4 -20.5°
Sets 16:50:53 0° 22° (NNE) 3,219 7.2 -21.0°
